Find Starlink 1227

NORAD ID: 45230 Int'l Des: 2020-012 Owner: SPXS Country: US Constellation: starlink operational
LEOCIRCULAR

Live Position

Loading 3D Globe...

About Starlink 1227

Description loading...

Upcoming Passes

Passes for default location (London). Set your location on the main map for personalized predictions.

Altitude History

Loading altitude history...

Two-Line Element Set

1 45230U 20012BE 26126.26836848 .00047128 00000-0 11334-2 0 9997
2 45230 53.1551 88.7765 0004330 84.6553 275.4946 15.40859402344385
Epoch: May 6, 2026 • Age: 9 hours

Current Status

Altitude 442.5 km
Velocity 7.65 km/s
Sub-Earth Point 21.63°N, 1.1°E
Launch Date Feb 17, 2020
Age 6.2 years
Type internet

Technical Details

Classification Payload
Mass 260.00 kg
Dry Mass 248.00 kg
Total Mass 260.00 kg
Length 0.20 m
Diameter 2.80 m
Span 9.00 m
Shape Box + pan
Manufacturer SPXS
Bus Type Starlink
Phase Status In Orbit
Owner/State SPXS/US

Most Searched